Regional Weather Roundup
Issued by NWS Upton, NY

Home | Current Version | Previous Version | Text Only | Print | Product List | Glossary On
Versions: 1 2 3 4 5 6 7 8 9 10 11 12 13 14 15 16 17 18 19 20 21 22 23 24 25 26 27 28 29 30 31 32 33 34 35 36 37 38 39 40 41 42 43 44 45 46 47 48 49 50
000
ASUS41 KOKX 020518
RWROKX

REGIONAL WEATHER ROUNDUP
NATIONAL WEATHER SERVICE NEW YORK NY
100 AM EDT THU JUL 02 2015

NOTE: "FAIR" INDICATES FEW OR NO CLOUDS BELOW 12,000 FEET WITH NO
SIGNIFICANT WEATHER AND/OR OBSTRUCTIONS TO VISIBILITY.

NYZ071-072-176-178-NJZ106-104-020600-
NEW YORK CITY METRO AREA


CITY           SKY/WX    TMP DP  RH WIND       PRES   REMARKS
CENTRAL PARK   PTCLDY    75  58  55 CALM      29.90S
LAGUARDIA APRT PTCLDY    76  59  55 NW12      29.87R
KENNEDY INTL   PTCLDY    77  58  51 W10       29.87S
NEWARK/LIBERTY CLOUDY    74  60  61 W10       29.87R
BRNX BOT. GARD   N/A     73  59  60 NE2       29.88F
TETERBORO      PTCLDY    72  59  63 NW5       29.87R
$$

NYZ177-179-078>081-020600-
LONG ISLAND NEW YORK

CITY           SKY/WX    TMP DP  RH WIND       PRES   REMARKS
FARMINGDALE    MOCLDY    75  59  57 NW6       29.87S
ISLIP          MOCLDY    73  59  61 W7        29.85S
SHIRLEY        MOCLDY    66  61  84 CALM      29.87S
WESTHAMPTON    MOCLDY    65  63  93 CALM      29.88R
MONTAUK POINT    N/A     73  61  65 W5        29.87R
$$

NYZ052-065-067-020600-
HUDSON VALLEY

CITY           SKY/WX    TMP DP  RH WIND       PRES   REMARKS
WHITE PLAINS   FAIR      68  61  78 NW6       29.88R
NEWBURGH       CLEAR     64  61  88 W7        29.90R
MONTGOMERY     CLEAR     59  58  96 CALM      29.88S
POUGHKEEPSIE   CLEAR     63  60  90 CALM      29.87R
ALBANY         PTCLDY    66  56  70 W8        29.86R
$$

NJZ001-105-106-008-010-013-015-019>022-104-020600-
NEW JERSEY

CITY           SKY/WX    TMP DP  RH WIND       PRES   REMARKS
NEWARK/LIBERTY CLOUDY    74  60  61 W10       29.87R
TETERBORO      PTCLDY    72  59  63 NW5       29.87R
CALDWELL       PTCLDY    69  60  73 CALM      29.89R
MORRISTOWN     NOT AVBL
SOMERVILLE     CLEAR     62  60  93 CALM      29.87R FOG
SUSSEX         CLEAR     62  60  93 CALM      29.90R FOG
ANDOVER          N/A     62  61  96 CALM      29.91R
TRENTON        PTCLDY    71  59  65 NW3       29.89S
MILLVILLE      MOCLDY    71  69  93 NW3       29.90F FOG
ATLANTIC CITY  MOCLDY    70  68  93 CALM      29.90F
WRIGHTSTOWN    MOCLDY    68  62  82 SW3       29.87F
TOMS RIVER     MOCLDY    66  63  88 CALM      29.90S
BELMAR         MOCLDY    72  57  60 W3        29.89F
$$

PAZ047>061-062-071-020600-
EASTERN PENNSYLVANIA

CITY           SKY/WX    TMP DP  RH WIND       PRES   REMARKS
PHILADELPHIA   PTCLDY    75  59  57 W5        29.90S
ALLENTOWN      CLEAR     64  58  80 CALM      29.90S
SCRANTON       CLEAR     61  58  90 CALM      29.92S
$$

CTZ002-004>006-009-010-012-RIZ004-006-007-MAZ004-011-015-020600-
SOUTHERN NEW ENGLAND
 IN CT

CITY           SKY/WX    TMP DP  RH WIND       PRES   REMARKS
BRADLEY INTL   PTCLDY    66  57  72 W5        29.85R
HARTFORD       PTCLDY    66  60  81 SE7       29.86R
DANBURY        CLEAR     63  58  83 SW3       29.90R
WTRBRY/OXFORD  PTCLDY    64  55  72 CALM      29.90S
BRIDGEPORT     MOCLDY    74  61  63 W5        29.87R
MERIDEN        PTCLDY    65  60  84 CALM      29.87R
NEW HAVEN      PTCLDY    71  59  65 N3        29.86R
CHESTER        FAIR      66  61  82 CALM      29.88S
GROTON         MOCLDY    69  62  78 N5        29.85R
WILLIMANTIC    PTCLDY    66  60  81 W3        29.86S

 IN RI

CITY           SKY/WX    TMP DP  RH WIND       PRES   REMARKS
PROVIDENCE     PTCLDY    70  60  70 W8        29.85R
BLOCK ISLAND   PTCLDY    68  63  83 W8        29.86R
WESTERLY       PTCLDY    69  63  81 CALM      29.86R

 IN MA

CITY           SKY/WX    TMP DP  RH WIND       PRES   REMARKS
BOSTON         MOCLDY    68  60  75 SW13      29.81S
WORCESTER      PTCLDY    63  56  78 W8        29.86S
WESTFIELD      CLEAR     62  57  83 S6        29.85R
PROVINCETOWN   PTCLDY    64   9  11 W9        29.82S
NANTUCKET      MOCLDY    67  65  93 SW14      29.84S FOG
$$

ANZ330-335-338-340-345-350-353-355-020600-
COASTAL MARINE OBSERVATIONS


STATION/POSITION TIME  SKY/WX   TEMP    WIND        PRES    VSBY  WAVE
                                AIR SEA DIR/SP/G                  HT/PER
                 (UTC)          (F)     (DEG/KT/KT) (MB)    (MI)  (FT/S)
NY HARB ENTRANCE 0450            73 71  240/  8/  8 1011.4          4/ 7
4S FIRE IS       0503               69                N/A           4/ 7
20S FIRE ISLAND  0450            70 67  260/  8/ 10 1011.4          4/ 8
GREAT SOUTH BAY  0430            76 75  290/  6/  8   N/A
23SW MTP         0450            68 66  260/  8/ 10 1011.1          5/ 8
HUDSON CANYON    NOT AVBL
KINGS POINT      0400            76 66  290/  7/  9 1010.7
CENTRAL LI SOUND NOT AVBL
EASTERN LI SOUND 0415            65 63  260/  4/  6   N/A
ROBBINS REEF     0400            76     280/  8/ 11 1010.3
$$


>>>>>>>>>>>>>>>>>>>>>>>>>>>> KEY <<<<<<<<<<<<<<<<<<<<<<<<<<<
>                                                          <
>     SKY/WX - SKY CONDITION/PRESENT WEATHER               <
>     TMP    - TEMPERATURE IN FAHRENHEIT                   <
>     DP     - DEWPOINT IN FAHRENHEIT                      <
>     RH     - RELATIVE HUMIDITY IN PERCENT                <
>     WIND   - DIRECTION AND SPEED IN MPH                  <
>     PRES   - MEAN SEA LEVEL PRESSURE IN INCHES OF HG     <
>     WCI    - WIND CHILL INDEX                            <
>     VSB    - VISIBILITY IN MILES                         <
>     HX     - HEAT INDEX                                  <
>     TC     - TEMPERATURE IN CELSIUS                      <
>     VRB    - VARIABLE WIND DIRECTION                     <
>                                                          <
>>>>>>>>>>>>>>>>>>>>>>>>>>>> KEY <<<<<<<<<<<<<<<<<<<<<<<<<<<





USA.gov is the U.S. government's official web portal to all federal, state and local government web resources and services.